Weather History for KGLD - February, 2013

Change the Weather History Date:

Sunday, February 24, 2013

  Actual Average Record
Temperature  
Mean Temperature 27 °F 35 °F  
Max Temperature 30 °F 48 °F 80 °F (1918)
Min Temperature 24 °F 21 °F -16 °F (1960)
Degree Days  
Heating Degree Days 38 30  
Month to date heating degree days 792 797  
Since 1 July heating degree days 4128 4300  
Cooling Degree Days 0 0  
Month to date cooling degree days 0 0  
Year to date cooling degree days 0 0  
Moisture  
Dew Point 26 °F    
Average Humidity 89    
Maximum Humidity 100    
Minimum Humidity 78    
Precipitation  
Precipitation 0.04 in 0.02 in 0.26 in (1956)
Month to date precipitation 0.78 0.41  
Year to date precipitation 0.85 0.79  
Snow  
Snow 0.60 in 0.10 in - ()
Month to date snowfall 12.5 4.7  
Since 1 July snowfall 23.2 23.3  
Snow Depth 4.00 in    
Sea Level Pressure  
Sea Level Pressure 29.88 in    
Wind  
Wind Speed 14 mph (NNE)    
Max Wind Speed 26 mph    
Max Gust Speed 32 mph    
Visibility 3 miles    
Events Fog , Snow    
T = Trace of Precipitation, MM = Missing Value Source: NWS Daily Summary

Daily Weather History Graph

Daily Weather History Graph

Search for Another Location

Airport or City:

Trip Planner

Search our weather history database for the weather conditions in past years. The results will help you decide how hot, cold, wet, or windy it might be!

Date:

Astronomy

Feb. 24, 2013 Rise Set
Actual Time 6:26 AM MST 5:34 PM MST
Civil Twilight 5:59 AM MST 6:01 PM MST
Nautical Twilight 5:28 AM MST 6:32 PM MST
Astronomical Twilight 4:57 AM MST 7:03 PM MST
Moon 4:47 PM MST (2/24) 5:24 AM MST (2/24)
Length of Visible Light 12h 01m
Length of Day
11h 07m
Waxing Gibbous, 99% of the Moon is Illuminated
Feb 24
Waxing Gibbous
Feb 25
Full
Mar 4
Last Quarter
Mar 11
New
Mar 19
First Quarter

Hourly Weather History & Observations

Time (MST) Temp. Windchill Dew Point Humidity Pressure Visibility Wind Dir Wind Speed Gust Speed Precip Events Conditions
12:53 AM 27.0 °F 18.7 °F 26.1 °F 96% 29.75 in 0.2 mi SE 8.1 mph - N/A Fog Light Freezing Fog
1:13 AM 28.4 °F 18.5 °F 26.6 °F 93% 29.71 in 0.5 mi SSE 11.5 mph - N/A Fog Light Freezing Fog
1:36 AM 28.4 °F 21.2 °F 28.4 °F 100% 29.72 in 0.2 mi SSE 6.9 mph - N/A Fog Light Freezing Fog
1:53 AM 28.0 °F 20.0 °F 27.0 °F 96% 29.77 in 0.2 mi SSE 8.1 mph - N/A Fog Light Freezing Fog
2:53 AM 28.0 °F 21.7 °F 27.0 °F 96% 29.74 in 0.2 mi ESE 5.8 mph - N/A Fog Light Freezing Fog
3:53 AM 28.0 °F 24.2 °F 27.0 °F 96% 29.75 in 0.2 mi ESE 3.5 mph - N/A Fog Light Freezing Fog
4:24 AM 28.4 °F - 26.6 °F 93% 29.70 in 0.2 mi Calm Calm - N/A Fog Light Freezing Fog
4:53 AM 28.0 °F 24.2 °F 27.0 °F 96% 29.76 in 0.2 mi ENE 3.5 mph - N/A Fog Light Freezing Fog
5:01 AM 28.4 °F 23.3 °F 26.6 °F 93% 29.72 in 0.5 mi NNE 4.6 mph - N/A Fog Light Freezing Fog
5:53 AM 26.1 °F 18.4 °F 25.0 °F 96% 29.80 in 0.5 mi NNE 6.9 mph - N/A Fog Light Freezing Fog
6:36 AM 26.6 °F 18.2 °F 24.8 °F 93% 29.75 in 0.2 mi NNE 8.1 mph - N/A Fog Light Freezing Fog
6:53 AM 26.1 °F 16.2 °F 25.0 °F 96% 29.81 in 0.2 mi NE 10.4 mph - N/A Fog Light Freezing Fog
7:53 AM 26.1 °F 15.6 °F 25.0 °F 96% 29.83 in 0.8 mi NNE 11.5 mph - N/A   Mist
8:01 AM 26.6 °F 16.8 °F 24.8 °F 93% 29.76 in 1.5 mi NE 10.4 mph - N/A   Overcast
8:29 AM 26.6 °F 17.5 °F 24.8 °F 93% 29.77 in 2.0 mi NE 9.2 mph - N/A   Overcast
8:53 AM 28.0 °F 17.5 °F 26.1 °F 92% 29.85 in 2.0 mi NNE 12.7 mph - N/A   Overcast
9:05 AM 28.4 °F 18.5 °F 26.6 °F 93% 29.79 in 1.2 mi NNE 11.5 mph - N/A   Overcast
9:23 AM 28.4 °F 17.0 °F 26.6 °F 93% 29.78 in 0.5 mi NE 15.0 mph - N/A Fog Light Freezing Fog
9:41 AM 28.4 °F 17.5 °F 26.6 °F 93% 29.77 in 0.2 mi NE 13.8 mph - N/A Fog Light Freezing Fog
9:53 AM 28.0 °F 17.0 °F 27.0 °F 96% 29.86 in 0.2 mi NNE 13.8 mph - N/A Fog Light Freezing Fog
10:21 AM 28.4 °F 17.0 °F 26.6 °F 93% 29.79 in 0.8 mi NNE 15.0 mph - N/A   Mist
10:53 AM 28.9 °F 17.7 °F 27.0 °F 92% 29.89 in 0.8 mi NNE 15.0 mph - N/A   Overcast
11:00 AM 28.4 °F 16.6 °F 26.6 °F 93% 29.80 in 1.0 mi NNE 16.1 mph - N/A   Overcast
11:17 AM 28.4 °F 16.2 °F 26.6 °F 93% 29.79 in 2.5 mi NNE 17.3 mph - N/A   Overcast
11:24 AM 28.4 °F 15.4 °F 26.6 °F 93% 29.79 in 4.0 mi NNE 19.6 mph - N/A   Overcast
11:53 AM 30.0 °F 17.2 °F 27.0 °F 88% 29.86 in 6.0 mi NNE 20.7 mph - N/A   Overcast
12:08 PM 30.2 °F 17.8 °F 26.6 °F 86% 29.79 in 7.0 mi NNE 19.6 mph 25.3 mph N/A   Overcast
12:53 PM 28.9 °F 15.4 °F 27.0 °F 92% 29.86 in 7.0 mi NNE 21.9 mph - N/A   Overcast
1:43 PM 28.4 °F 15.1 °F 26.6 °F 93% 29.79 in 3.0 mi North 20.7 mph - N/A   Overcast
1:53 PM 28.9 °F 15.4 °F 27.0 °F 92% 29.86 in 3.0 mi North 21.9 mph - N/A   Overcast
2:41 PM 28.4 °F 14.7 °F 24.8 °F 86% 29.81 in 5.0 mi NNE 21.9 mph - N/A   Overcast
2:53 PM 28.9 °F 16.5 °F 26.1 °F 89% 29.88 in 6.0 mi North 18.4 mph 32.2 mph N/A   Overcast
3:12 PM 28.4 °F 15.8 °F 24.8 °F 86% 29.83 in 7.0 mi NNE 18.4 mph 28.8 mph N/A   Overcast
3:53 PM 28.0 °F 14.6 °F 25.0 °F 88% 29.92 in 7.0 mi North 20.7 mph - N/A   Overcast
4:53 PM 28.9 °F 15.8 °F 23.0 °F 78% 29.96 in 10.0 mi North 20.7 mph - N/A   Overcast
5:23 PM 28.4 °F 14.7 °F 24.8 °F 86% 29.91 in 1.8 mi North 21.9 mph 29.9 mph 0.00 in Snow Light Snow
5:38 PM 28.4 °F 15.1 °F 24.8 °F 86% 29.93 in 1.2 mi North 20.7 mph 28.8 mph 0.00 in Snow Light Snow
5:53 PM 28.0 °F 14.9 °F 25.0 °F 88% 30.02 in 1.5 mi North 19.6 mph - 0.01 in Snow Light Snow
6:17 PM 28.4 °F 17.0 °F 26.6 °F 93% 29.96 in 1.8 mi North 15.0 mph - 0.00 in Snow Light Snow
6:29 PM 28.4 °F 16.2 °F 26.6 °F 93% 29.97 in 1.8 mi North 17.3 mph - 0.00 in Snow Light Snow
6:53 PM 28.0 °F 16.5 °F 26.1 °F 92% 30.06 in 1.5 mi North 15.0 mph - 0.02 in Snow Light Snow
7:04 PM 28.4 °F 17.0 °F 26.6 °F 93% 29.98 in 2.0 mi NNE 15.0 mph - 0.00 in Snow Light Snow
7:21 PM 28.4 °F 16.6 °F 26.6 °F 93% 29.98 in 1.8 mi North 16.1 mph - 0.00 in Snow Light Snow
7:53 PM 28.0 °F 14.6 °F 25.0 °F 88% 30.06 in 1.8 mi North 20.7 mph - 0.00 in Snow Light Snow
8:00 PM 28.4 °F 15.1 °F 24.8 °F 86% 29.98 in 2.0 mi North 20.7 mph - 0.00 in Snow Light Snow
8:14 PM 28.4 °F 15.8 °F 24.8 °F 86% 29.99 in 1.8 mi North 18.4 mph 25.3 mph 0.00 in Snow Light Snow
8:22 PM 28.4 °F 16.2 °F 24.8 °F 86% 30.00 in 2.0 mi North 17.3 mph 25.3 mph 0.00 in Snow Light Snow
8:53 PM 27.0 °F 15.2 °F 25.0 °F 92% 30.08 in 2.5 mi North 15.0 mph - 0.00 in Snow Light Snow
8:56 PM 26.6 °F 15.2 °F 24.8 °F 93% 30.00 in 3.0 mi North 13.8 mph - 0.00 in Snow Light Snow
9:12 PM 26.6 °F 15.2 °F 24.8 °F 93% 30.01 in 2.5 mi North 13.8 mph - 0.00 in Snow Light Snow
9:19 PM 26.6 °F 14.7 °F 24.8 °F 93% 30.01 in 3.0 mi North 15.0 mph - 0.00 in Snow Light Snow
9:46 PM 26.6 °F 14.3 °F 24.8 °F 93% 30.01 in 2.5 mi NNE 16.1 mph 25.3 mph 0.00 in Snow Light Snow
9:53 PM 27.0 °F 14.3 °F 25.0 °F 92% 30.09 in 2.5 mi North 17.3 mph - 0.00 in Snow Light Snow
10:04 PM 26.6 °F 14.3 °F 24.8 °F 93% 30.01 in 4.0 mi NNE 16.1 mph - 0.00 in Snow Light Snow
10:53 PM 28.0 °F 15.7 °F 25.0 °F 88% 30.07 in 8.0 mi North 17.3 mph - 0.01 in Snow Light Snow
11:53 PM 27.0 °F 16.1 °F 24.1 °F 89% 30.09 in 10.0 mi North 12.7 mph - 0.00 in   Overcast